KF5FGL Weather Reports


Display with metric or nautical units.
time (UTC)temp
F
wind
direction
speed
MPH
gust
MPH
rain 1hr
in
rain 24hr
in
rain mn
in
humidity
%
barometer
mb
20260906070013 81 227 2.0 5.0 0.00 0.00 0.00 81 1011.4
20260906064531 81 128 2.0 7.0 0.00 0.00 0.00 80 1011.5
20260906063018 82 175 1.0 7.0 0.00 0.00 0.00 77 1011.5
20260906061508 82 160 2.0 8.0 0.00 0.00 0.00 78 1011.7
20260906060027 82 173 2.0 8.0 0.00 0.00 0.00 76 1011.6
20260906054514 83 178 1.0 5.0 0.00 0.00 0.00 73 1011.6
20260906053004 82 174 1.0 4.0 0.00 0.00 0.00 74 1011.6
20260906051520 84 146 0.0 5.0 0.00 0.00 0.00 70 1011.7
20260906050008 84 158 0.0 4.0 0.00 0.00 0.00 70 1011.8
20260906044527 83 135 1.0 4.0 0.00 0.00 0.00 70 1011.7
20260906043028 86 146 0.0 3.0 0.00 0.00 0.00 66 1011.7
20260906041504 85 159 0.0 6.0 0.00 0.00 0.00 67 1011.7
20260906040024 85 119 2.0 10.0 0.00 0.00 0.00 67 1011.7
20260906034514 86 151 1.0 10.0 0.00 0.00 0.00 65 1011.4
20260906033036 85 141 0.0 7.0 0.00 0.00 0.00 66 1011.3
20260906031521 86 150 1.0 7.0 0.00 0.00 0.00 64 1010.9
20260906030018 88 106 3.0 10.0 0.00 0.00 0.00 63 1010.6
20260906024531 87 146 3.0 9.0 0.00 0.00 0.00 63 1010.4
20260906023019 89 148 3.0 10.0 0.00 0.00 0.00 60 1010.0
20260906021508 90 135 2.0 10.0 0.00 0.00 0.00 58 1009.5
20260906020027 90 83 1.0 13.0 0.00 0.00 0.00 56 1009.2
20260906014519 93 124 2.0 8.0 0.00 0.00 0.00 48 1009.0
20260906013006 92 120 0.0 3.0 0.00 0.00 0.00 47 1008.8
20260906011526 92 131 2.0 5.0 0.00 0.00 0.00 46 1008.7
20260906010014 92 129 0.0 1.0 0.00 0.00 0.00 48 1008.4
20260906004502 92 130 0.0 1.0 0.00 0.00 0.00 48 1008.4
20260906003025 94 132 0.0 2.0 0.00 0.00 0.00 47 1008.4
20260906001517 93 129 0.0 0.0 0.00 0.00 0.00 48 1008.4
20260906000002 95 122 0.0 7.0 0.00 0.00 0.00 46 1008.4
20260905234520 94 114 1.0 3.0 0.00 0.00 0.00 47 1008.3
20260905233010 97 117 1.0 6.0 0.00 0.00 0.00 43 1008.4
20260905231559 97 104 2.0 7.0 0.00 0.00 0.00 43 1008.3
20260905230019 98 119 1.0 5.0 0.00 0.00 0.00 41 1008.3
20260905224507 98 61 1.0 4.0 0.00 0.00 0.00 41 1008.4
20260905223026 97 96 2.0 9.0 0.00 0.00 0.00 42 1008.3
20260905221514 97 64 3.0 7.0 0.00 0.00 0.00 41 1008.5
20260905220003 96 79 3.0 7.0 0.00 0.00 0.00 43 1008.6
20260905214525 97 76 4.0 8.0 0.00 0.00 0.00 42 1008.6
20260905213011 97 75 5.0 13.0 0.00 0.00 0.00 46 1008.8
20260905211532 98 127 2.0 5.0 0.00 0.00 0.00 43 1008.8
20260905210018 96 155 0.0 5.0 0.00 0.00 0.00 45 1008.9
20260905204505 95 80 2.0 6.0 0.00 0.00 0.00 46 1009.1
20260905203022 93 107 1.0 6.0 0.00 0.00 0.00 50 1009.6
20260905201510 98 105 2.0 4.0 0.00 0.00 0.00 45 1009.9
20260905200029 94 84 2.0 8.0 0.00 0.00 0.00 49 1010.2
20260905194514 96 263 1.0 7.0 0.00 0.00 0.00 45 1010.3
20260905193000 96 175 1.0 6.0 0.00 0.00 0.00 48 1010.5
20260905191518 95 143 0.0 4.0 0.00 0.00 0.00 50 1010.8
20260905190005 94 81 3.0 9.0 0.00 0.00 0.00 53 1011.2
20260905184543 94 160 1.0 7.0 0.00 0.00 0.00 51 1011.4
20260905183032 95 167 1.0 5.0 0.00 0.00 0.00 54 1011.8
20260905181602 91 95 2.0 7.0 0.00 0.00 0.00 61 1012.1
20260905180024 94 115 3.0 12.0 0.00 0.00 0.00 57 1012.2
20260905174509 92 187 2.0 6.0 0.00 0.00 0.00 56 1012.3
20260905173028 91 91 5.0 11.0 0.00 0.00 0.00 58 1012.4
20260905171516 93 209 0.0 6.0 0.00 0.00 0.00 63 1012.7
20260905170101 89 248 0.0 4.0 0.00 0.00 0.00 67 1013.0
20260905164517 86 261 0.0 1.0 0.00 0.00 0.00 74 1013.1
20260905163006 86 285 1.0 5.0 0.00 0.00 0.00 74 1013.0
20260905161524 86 294 0.0 4.0 0.00 0.00 0.00 75 1013.1
20260905160011 85 222 1.0 3.0 0.00 0.00 0.00 77 1013.2
20260905154536 85 138 0.0 4.0 0.00 0.00 0.00 79 1013.1
20260905153017 84 182 0.0 5.0 0.00 0.00 0.00 80 1013.1
20260905151505 85 117 0.0 4.0 0.00 0.00 0.00 79 1013.1
20260905150022 83 117 0.0 5.0 0.00 0.00 0.00 83 1013.0
20260905144510 83 153 1.0 5.0 0.00 0.00 0.00 83 1013.0
20260905143101 83 183 2.0 7.0 0.00 0.00 0.00 83 1012.9
20260905141524 84 110 0.0 3.0 0.00 0.00 0.00 83 1012.9
20260905140005 82 121 0.0 5.0 0.00 0.00 0.00 84 1012.8
20260905134522 81 134 1.0 3.0 0.00 0.00 0.00 83 1012.6
20260905133010 79 137 0.0 3.0 0.00 0.00 0.00 78 1012.5
20260905131524 79 73 0.0 3.0 0.00 0.00 0.00 76 1012.5
20260905130014 78 154 0.0 0.0 0.00 0.00 0.00 76 1012.2
20260905124531 77 169 0.0 0.0 0.00 0.00 0.00 77 1012.1
20260905123014 77 169 0.0 0.0 0.00 0.00 0.00 78 1012.0
20260905121604 78 169 0.0 0.0 0.00 0.00 0.00 80 1011.9
20260905120019 79 168 0.0 0.0 0.00 0.00 0.00 82 1011.8
20260905114508 78 166 0.0 0.0 0.00 0.00 0.00 79 1011.8
20260905113033 79 166 0.0 0.0 0.00 0.00 0.00 82 1011.8
20260905111528 79 161 0.0 0.0 0.00 0.00 0.00 80 1011.7
20260905110018 78 158 0.0 0.0 0.00 0.00 0.00 79 1011.7
20260905104527 78 158 0.0 0.0 0.00 0.00 0.00 80 1011.5
20260905103012 79 170 0.0 1.0 0.00 0.00 0.00 81 1011.5
20260905101546 79 166 0.0 0.0 0.00 0.00 0.00 82 1011.4
20260905100021 81 164 0.0 2.0 0.00 0.00 0.00 83 1011.3
20260905094508 80 150 0.0 1.0 0.00 0.00 0.00 82 1011.3
20260905093029 80 119 0.0 2.0 0.00 0.00 0.00 83 1011.3
20260905091518 81 133 0.0 1.0 0.00 0.00 0.00 83 1011.4
20260905090014 79 138 0.0 1.0 0.00 0.00 0.00 82 1011.4
20260905084523 79 127 0.0 0.0 0.00 0.00 0.00 82 1011.4
20260905083011 80 183 0.0 1.0 0.00 0.00 0.00 83 1011.4
20260905081529 82 144 0.0 4.0 0.00 0.00 0.00 84 1011.5
20260905080026 80 135 0.0 3.0 0.00 0.00 0.00 83 1011.6
20260905074506 80 129 0.0 3.0 0.00 0.00 0.00 84 1011.8
20260905073024 80 115 0.0 4.0 0.00 0.00 0.00 84 1011.8
20260905071518 82 125 0.0 3.0 0.00 0.00 0.00 82 1012.0